Photometre #843[NE_1.6_Dp] Camborne_MO AOT

File : 20210607_843.hum

07/06/2021,05:20:15,TEMP=10.2,BA=5.64,STAT.A,ExtBa=12.30
07/06/2021,05:24:40,TEMP=10.4,BA=5.64,STAT.A,ExtBa=12.30
07/06/2021,05:29:46,TEMP=10.6,BA=5.64,STAT.A,ExtBa=12.20
07/06/2021,05:35:47,TEMP=10.9,BA=5.64,STAT.A,ExtBa=12.20
07/06/2021,05:42:57,TEMP=11.2,BA=5.68,STAT.A,ExtBa=12.20
07/06/2021,05:51:41,TEMP=11.4,BA=5.68,STAT.A,ExtBa=12.20
07/06/2021,06:02:30,TEMP=11.4,BA=5.68,STAT.B,ExtBa=12.20
07/06/2021,06:05:35,TEMP=12.0,BA=5.68,STAT.h
07/06/2021,06:05:49,TEMP=12.0,BA=5.68,STAT.b=1.0
07/06/2021,06:07:14,TEMP=12.0,BA=5.68,STAT.h
07/06/2021,06:12:55,TEMP=12.0,BA=5.68,STAT.h
07/06/2021,06:12:59,TEMP=12.0,BA=5.68,STAT.b=1.0
07/06/2021,06:19:15,TEMP=12.0,BA=5.68,STAT.h
07/06/2021,06:19:19,TEMP=12.0,BA=5.68,STAT.b=1.0
07/06/2021,06:26:23,TEMP=12.0,BA=5.64,STAT.h
07/06/2021,06:26:24,TEMP=12.0,BA=5.64,STAT.h
07/06/2021,06:35:14,TEMP=12.1,BA=5.68,STAT.C,ExtBa=12.20
07/06/2021,06:44:30,TEMP=12.5,BA=5.64,STAT.b=1.0
07/06/2021,06:45:17,TEMP=12.5,BA=5.64,STAT.A,ExtBa=12.10
07/06/2021,06:54:55,TEMP=12.1,BA=5.68,STAT.A,ExtBa=12.20
07/06/2021,07:07:33,TEMP=12.9,BA=5.68,STAT.A,ExtBa=12.20
07/06/2021,07:22:41,TEMP=14.2,BA=5.68,STAT.A,ExtBa=12.20
07/06/2021,07:41:14,TEMP=14.5,BA=5.68,STAT.B,ExtBa=12.20
07/06/2021,08:19:02,TEMP=15.6,BA=5.68,STAT.E,ExtBa=12.20
07/06/2021,08:21:03,TEMP=16.1,BA=5.64,STAT.E,ExtBa=12.20
07/06/2021,08:35:25,TEMP=15.6,BA=5.68,STAT.D,ExtBa=12.20
07/06/2021,08:50:25,TEMP=16.1,BA=5.64,STAT.D,ExtBa=12.20
07/06/2021,09:05:25,TEMP=17.0,BA=5.64,STAT.D,ExtBa=12.20
07/06/2021,09:20:27,TEMP=17.6,BA=5.64,STAT.F,ExtBa=12.20
07/06/2021,09:35:25,TEMP=17.9,BA=5.64,STAT.D,ExtBa=12.20
07/06/2021,09:50:25,TEMP=17.3,BA=5.64,STAT.D,ExtBa=12.20
07/06/2021,10:05:25,TEMP=16.7,BA=5.64,STAT.D,ExtBa=12.20
07/06/2021,10:20:27,TEMP=16.6,BA=5.64,STAT.F,ExtBa=12.20
07/06/2021,10:41:52,TEMP=17.2,BA=5.60,STAT.D,ExtBa=12.10
07/06/2021,10:50:26,TEMP=16.7,BA=5.64,STAT.D,ExtBa=12.10
07/06/2021,11:05:26,TEMP=16.7,BA=5.64,STAT.D,ExtBa=12.20
07/06/2021,11:20:27,TEMP=16.9,BA=5.64,STAT.F,ExtBa=12.20
07/06/2021,11:35:26,TEMP=17.3,BA=5.64,STAT.D,ExtBa=12.20
07/06/2021,11:50:26,TEMP=18.4,BA=5.64,STAT.D,ExtBa=12.20
07/06/2021,12:05:26,TEMP=18.2,BA=5.64,STAT.D,ExtBa=12.20
07/06/2021,12:20:28,TEMP=18.0,BA=5.64,STAT.F,ExtBa=12.20
07/06/2021,12:35:26,TEMP=19.1,BA=5.64,STAT.D,ExtBa=12.20
07/06/2021,12:50:26,TEMP=20.3,BA=5.64,STAT.D,ExtBa=12.20
07/06/2021,13:05:26,TEMP=20.9,BA=5.64,STAT.D,ExtBa=12.20
07/06/2021,13:20:27,TEMP=20.2,BA=5.64,STAT.F,ExtBa=12.20
07/06/2021,13:36:43,TEMP=21.0,BA=5.52,STAT.D,ExtBa=12.10
07/06/2021,13:50:26,TEMP=20.3,BA=5.64,STAT.D,ExtBa=12.20
07/06/2021,14:05:26,TEMP=20.4,BA=5.64,STAT.D,ExtBa=12.20
07/06/2021,14:20:27,TEMP=20.3,BA=5.68,STAT.F,ExtBa=12.20
07/06/2021,14:36:26,TEMP=21.8,BA=5.64,STAT.D,ExtBa=12.10
07/06/2021,14:50:25,TEMP=20.6,BA=5.68,STAT.D,ExtBa=12.10
07/06/2021,15:05:25,TEMP=19.3,BA=5.68,STAT.D,ExtBa=12.20
07/06/2021,15:20:27,TEMP=18.7,BA=5.68,STAT.F,ExtBa=12.20
07/06/2021,15:36:45,TEMP=19.5,BA=5.64,STAT.D,ExtBa=12.10
07/06/2021,15:50:25,TEMP=18.9,BA=5.68,STAT.D,ExtBa=12.10
07/06/2021,16:05:25,TEMP=19.5,BA=5.68,STAT.D,ExtBa=12.20
07/06/2021,16:20:26,TEMP=20.7,BA=5.68,STAT.E,ExtBa=12.20
07/06/2021,16:36:53,TEMP=20.6,BA=5.64,STAT.B,ExtBa=12.10
07/06/2021,16:59:38,TEMP=18.7,BA=5.68,STAT.B,ExtBa=12.10
07/06/2021,17:18:11,TEMP=18.4,BA=5.68,STAT.A,ExtBa=12.10
07/06/2021,17:33:19,TEMP=18.5,BA=5.68,STAT.A,ExtBa=12.10
07/06/2021,17:45:57,TEMP=18.5,BA=5.68,STAT.A,ExtBa=12.10
07/06/2021,17:56:42,TEMP=18.1,BA=5.68,STAT.A,ExtBa=12.10
07/06/2021,18:05:59,TEMP=17.8,BA=5.68,STAT.C,ExtBa=12.10
07/06/2021,18:31:02,TEMP=17.7,BA=5.64,STAT.A,ExtBa=12.10
07/06/2021,18:34:16,TEMP=17.3,BA=5.64,STAT.A,ExtBa=12.10
07/06/2021,18:36:29,TEMP=17.4,BA=5.64,STAT.A,ExtBa=12.10
07/06/2021,18:38:39,TEMP=17.3,BA=5.64,STAT.A,ExtBa=12.10
07/06/2021,18:40:49,TEMP=17.3,BA=5.64,STAT.B,ExtBa=12.10
07/06/2021,18:49:42,TEMP=16.9,BA=5.64,STAT.A,ExtBa=12.10
07/06/2021,18:57:55,TEMP=16.2,BA=5.64,STAT.A,ExtBa=12.10
07/06/2021,19:05:05,TEMP=15.9,BA=5.68,STAT.A,ExtBa=12.10
07/06/2021,19:11:06,TEMP=15.7,BA=5.68,STAT.A,ExtBa=12.10
07/06/2021,19:16:12,TEMP=15.4,BA=5.68,STAT.A,ExtBa=12.10
07/06/2021,19:20:37,TEMP=15.3,BA=5.68,STAT.A,ExtBa=12.10